This is the latest recevied weather packets stored in our database for station/object WD5U-1. If no packets are shown the sender has not sent any weather packets the latest 10 day(s).
| Time | Temp. | Humidity | Pressure | Rain* | Wind** | Luminosity | Snow |
|---|---|---|---|---|---|---|---|
| 1778032461 | 15.56° C | 83% | 1009.6 hPa | 0 mm | - | - | - |
| 1778032338 | 15.56° C | 83% | 1009.5 hPa | 0 mm | - | - | - |
| 1778032237 | 15.56° C | 84% | 1009.3 hPa | 0 mm | - | - | - |
| 1778031377 | 16.11° C | 82% | 1009 hPa | 0 mm | - | - | - |
| 1778030901 | 16.67° C | 82% | 1008.6 hPa | 0 mm | - | - | - |
| 1778030799 | 16.67° C | 81% | 1008.5 hPa | 0 mm | - | - | - |
| 1778030537 | 16.67° C | 82% | 1008.6 hPa | 0 mm | - | - | - |
| 1778030062 | 17.22° C | 81% | 1008.5 hPa | 0 mm | - | - | - |
| 1778029818 | 17.22° C | 81% | 1008.3 hPa | 0 mm | - | - | - |
| 1778028380 | 17.78° C | 79% | 1008 hPa | 0 mm | - | - | - |
| 1778027419 | 18.33° C | 79% | 1008.2 hPa | 0 mm | - | - | - |
| 1778026457 | 18.33° C | 78% | 1008 hPa | 0 mm | - | - | - |
| 1778026336 | 18.33° C | 77% | 1008.2 hPa | 0 mm | - | - | - |
| 1778025860 | 18.33° C | 77% | 1008.3 hPa | 0 mm | - | - | - |
| 1778025617 | 18.33° C | 76% | 1007.8 hPa | 0 mm | - | - | - |
| 1778024304 | 19.44° C | 75% | 1007.9 hPa | 0 mm | - | - | - |
| 1778024220 | 19.44° C | 75% | 1008 hPa | 0 mm | - | - | - |
| 1778023937 | 19.44° C | 75% | 1008.2 hPa | 0 mm | - | - | - |
| 1778023339 | 20° C | 75% | 1008.2 hPa | 0 mm | - | - | - |
| 1778022863 | 20.56° C | 74% | 1007.6 hPa | 0 mm | - | - | - |
| 1778022145 | 20.56° C | 72% | 1007.8 hPa | 0 mm | - | - | - |
| 1778021780 | 21.11° C | 72% | 1007.5 hPa | 0 mm | - | - | - |
| 1778020576 | 21.67° C | 73% | 1007.8 hPa | 0 mm | - | - | - |
| 1778020343 | 21.67° C | 72% | 1007.7 hPa | 0 mm | - | - | - |
| 1778020101 | 21.67° C | 72% | 1007.7 hPa | 0 mm | - | - | - |
* Rain latest hour (hover to see other rain measurements)
** Current wind speed in m/s (hover to see current wind gust speed)